This is the latest recevied weather packets stored in our database for station/object LA4M-10. If no packets are shown the sender has not sent any weather packets the latest 10 day(s).
| Time | Temp. | Humidity | Pressure | Rain* | Wind** | Luminosity | Snow |
|---|---|---|---|---|---|---|---|
| 1787954844 | 11.67° C | 100% | 943.3 hPa | - | - | - | - |
| 1787953944 | 11.11° C | 100% | 943.8 hPa | - | - | - | - |
| 1787953044 | 10.56° C | 100% | 943.6 hPa | - | - | - | - |
| 1787952143 | 10.56° C | 100% | 943.9 hPa | - | - | - | - |
| 1787951243 | 11.11° C | 100% | 944.1 hPa | - | - | - | - |
| 1787950343 | 11.11° C | 100% | 944.2 hPa | - | - | - | - |
| 1787949443 | 12.78° C | 100% | 944.4 hPa | - | - | - | - |
| 1787948543 | 11.67° C | 100% | 944.5 hPa | - | - | - | - |
| 1787947643 | 13.33° C | 100% | 944.2 hPa | - | - | - | - |
| 1787946743 | 11.67° C | 100% | 944.4 hPa | - | - | - | - |
| 1787945843 | 12.22° C | 100% | 944.1 hPa | - | - | - | - |
| 1787944943 | 12.78° C | 100% | 944.6 hPa | - | - | - | - |
| 1787944043 | 13.89° C | 100% | 944.5 hPa | - | - | - | - |
| 1787943142 | 14.44° C | 97% | 944.4 hPa | - | - | - | - |
| 1787942242 | 14.44° C | 94% | 944.3 hPa | - | - | - | - |
| 1787941342 | 15° C | 95% | 944 hPa | - | - | - | - |
| 1787940442 | 15° C | 96% | 944.6 hPa | - | - | - | - |
| 1787939542 | 15° C | 90% | 944.4 hPa | - | - | - | - |
| 1787938642 | 15.56° C | 84% | 943.7 hPa | - | - | - | - |
| 1787937742 | 15.56° C | 77% | 944.3 hPa | - | - | - | - |
| 1787936842 | 16.11° C | 68% | 944.9 hPa | - | - | - | - |
| 1787935941 | 16.67° C | 69% | 944.8 hPa | - | - | - | - |
| 1787935041 | 16.67° C | 70% | 945.1 hPa | - | - | - | - |
| 1787934141 | 16.67° C | 72% | 945.2 hPa | - | - | - | - |
| 1787933241 | 17.22° C | 66% | 944.8 hPa | - | - | - | - |
* Rain since midnight (hover to see other rain measurements)
** Current wind speed in m/s (hover to see current wind gust speed)